Location: Lane
(33.5226°N, 79.8788°W)
Time: 07:03:14
(UTC+00:00)

Explorer 7 - Pass Details

Date: 04 October 2022
Orbit: 481 x 665 km, 50.3° (Epoch: 28 November)

Event Time Altitude Azimuth Distance (km) Brightness Sun altitude
Rises 21:23:25 0° 316° (NW) 2,915 10.9 18.8°
Reaches altitude 10° 21:25:53 10° 323° (NW) 1,977 10.0 18.3°
Maximum altitude 21:30:13 44° 36° (NE) 816 7.5 17.5°
Drops below altitude 10° 21:34:18 10° 109° (ESE) 1,856 9.1 16.6°
Sets 21:36:33 0° 116° (ESE) 2,715 9.9 16.2°
